Starlink 5657

operational
NORAD ID: 55342 Int'l Des: 2023-013 Owner: SPXS Country: US Constellation: starlink
LEOCIRCULAR

Über Starlink 5657

Beschreibung wird geladen...

Live-Position

3D-Globus wird geladen...

Nächste Überflüge

Höhenverlauf

Altitude vs Time

uPlot chart will show altitude changes over time

Zweizeiliger Elementsatz

1 55342U 23013M 26033.56244078 .00000782 00000-0 72922-4 0 9991
2 55342 43.0037 131.3515 0001185 263.2850 96.7858 15.02535340166428
Epoch: 2. Feb. 2026 • Age: 14 hours

Aktueller Status

Höhe 568.9 km
Geschwindigkeit 7.58 km/s
Subsatellitenpunkt -36.32°S, 176.65°E
Startdatum 26. Jan. 2023
Alter 3 years
Typ internet

Technische Details

Klassifizierung Payload
Masse 305.00 kg
Trockenmasse 290.00 kg
Gesamtmasse 305.00 kg
Länge 0.20 m
Durchmesser 2.80 m
Spannweite 9.00 m
Form Box + pan
Hersteller SPXS
Bus-Typ Starlink
Phasenstatus In Orbit
Besitzer/Staat SPXS/US

Große Konstellationen

Loading constellations...